Wind_Speed
22 18 19 23 26 28 32 36 41 47 43 44 46 44 41 35 30 23 19 21 26 25 22 24 24 22 23 25 19 19 21 24 23 18 17 15 15 17 17 18 20 23 26
19 16 18 22 28 28 30 36 41 44 44 45 45 45 43 38 30 26 25 25 28 29 31 30 30 29 24 23 19 21 25 26 20 17 14 14 16 18 18 20 22 23 24
22 20 21 25 28 29 29 34 38 43 43 42 43 46 45 41 34 31 29 25 26 38 34 29 27 24 20 19 21 19 20 23 19 13 13 13 15 18 19 21 23 24 26
21 22 23 27 26 27 29 31 36 41 41 42 42 42 45 45 40 34 33 28 33 36 34 32 30 24 21 19 19 18 19 21 17 12 12 15 17 18 20 21 23 25 27
22 23 24 26 27 25 28 29 35 38 38 40 42 41 42 43 45 40 36 31 31 35 34 34 29 27 21 20 23 22 23 22 18 13 15 15 16 19 23 24 25 27 26
25 25 26 26 25 23 27 28 34 37 35 37 40 41 41 42 46 44 38 35 31 32 32 31 31 29 24 22 22 22 23 21 20 18 15 16 17 21 23 25 27 27 28
24 24 23 25 25 24 24 25 31 35 32 36 39 41 40 41 40 46 44 42 32 30 30 28 30 26 28 22 20 19 19 19 20 18 18 16 16 15 17 19 15 17 17
23 21 25 25 23 26 24 23 28 30 33 36 37 39 39 38 37 44 45 43 38 33 28 26 26 26 25 22 20 18 17 18 19 18 19 19 21 24 24 25 26 26 23
26 25 25 25 23 27 26 23 24 28 31 37 37 39 39 39 36 38 45 42 39 35 29 27 24 26 25 22 21 19 20 22 19 19 20 22 24 24 25 26 27 30 31
26 23 26 23 23 27 26 25 21 25 30 35 36 38 40 39 36 37 40 44 40 35 32 28 26 24 27 23 22 21 20 21 23 23 23 23 24 24 26 29 29 29 28
27 26 23 23 25 30 28 26 21 23 29 33 35 37 36 38 40 40 41 41 42 34 32 29 26 24 26 26 23 22 23 22 23 24 24 25 25 26 28 27 28 28 23
28 31 28 27 28 30 26 27 24 23 26 31 34 35 33 34 37 38 40 42 41 39 30 27 26 28 29 29 27 24 22 21 21 23 23 22 25 26 28 25 25 26 28
27 30 28 27 28 29 27 25 25 27 29 31 33 31 31 30 33 36 37 41 44 41 32 29 28 27 29 31 31 29 26 26 24 22 24 22 22 24 29 27 28 26 28
32 34 30 30 29 29 28 27 28 25 31 34 33 31 27 28 30 33 37 39 44 44 41 32 31 29 28 32 34 30 29 28 28 27 27 27 26 27 27 28 32 34 31
29 37 38 31 27 31 31 32 29 29 29 35 34 34 27 29 29 31 35 38 44 46 45 39 33 31 31 29 32 36 35 33 32 31 31 32 31 30 30 29 32 35 34
26 37 43 36 27 32 36 32 32 29 31 39 33 33 27 26 27 31 35 35 41 48 51 48 39 35 32 31 32 32 35 37 38 39 37 35 35 37 36 35 34 34 33
30 37 43 43 35 36 38 33 34 31 38 38 31 37 29 28 32 31 35 35 36 41 51 51 45 43 40 34 32 34 36 37 40 43 45 42 38 37 40 43 42 39 42
37 37 44 47 45 39 41 35 35 34 36 33 38 39 39 41 36 36 34 35 35 39 43 49 52 50 43 40 41 36 37 40 41 46 48 46 45 42 42 45 48 49 48
45 39 46 49 47 40 42 39 35 36 37 41 44 42 43 41 41 44 42 42 39 40 42 44 49 54 49 47 45 41 40 40 43 46 46 50 54 55 57 58 55 53 54
59 43 49 52 50 42 44 42 37 38 41 44 48 47 42 40 44 50 50 49 50 44 41 43 41 47 54 54 52 50 49 47 50 50 49 48 52 56 61 63 62 63 65
67 55 53 55 56 49 44 43 43 44 44 46 47 45 43 42 48 53 56 57 58 49 51 45 43 46 52 55 58 54 54 56 56 56 54 53 51 56 58 62 67 72 71
73 62 58 58 60 58 47 46 46 45 48 48 45 44 44 49 51 54 58 59 58 54 53 50 50 51 47 48 51 55 58 59 60 54 58 61 61 64 66 69 73 73 76
73 70 64 62 62 61 53 49 50 46 48 49 49 48 49 52 55 57 59 63 58 59 57 58 58 54 49 54 56 58 58 62 57 58 60 64 66 66 70 73 75 78 81
69 70 64 63 62 62 60 55 52 50 51 53 53 53 54 54 55 59 62 60 62 63 62 66 61 60 51 53 57 62 63 65 63 59 60 64 65 68 74 78 78 81 84
71 72 70 70 68 70 67 62 59 59 58 60 58 56 57 58 56 62 59 62 64 62 67 66 63 59 51 52 57 62 65 68 72 71 63 59 65 67 75 76 82 85 89
76 73 78 77 76 77 74 70 67 64 61 59 59 59 59 62 64 63 63 64 65 66 69 70 61 58 59 60 61 62 66 68 73 76 72 65 66 70 75 80 85 91 96
Wind_Direction
310 323 323 334 339 343 345 346 351 352 354 356 1 2 8 7 8 8 2 360 354 358 355 348 340 330 328 322 303 293 298 296 294 289 280 274 280 275 269 264 264 268 267
300 315 325 334 339 337 341 343 350 352 354 355 4 10 11 12 7 358 354 358 359 355 348 338 332 329 324 319 298 297 300 300 295 277 276 277 278 276 272 272 268 269 272
298 310 317 327 332 333 336 341 350 351 354 359 4 12 16 16 8 3 356 352 350 346 346 350 346 340 332 324 315 303 318 316 311 280 272 270 274 276 273 276 276 279 282
301 307 319 322 326 330 332 338 347 350 354 0 3 10 14 21 17 7 1 348 342 346 352 350 353 350 343 332 330 328 325 329 322 316 303 285 280 278 283 289 285 279 279
300 310 318 318 319 327 329 336 346 349 353 357 4 11 14 15 19 18 8 356 351 351 353 353 357 356 346 336 333 330 332 334 337 305 299 302 286 281 281 281 279 279 279
301 305 310 313 317 323 328 332 342 346 352 359 1 9 10 15 15 19 18 8 357 351 355 356 357 353 355 349 342 341 340 341 337 330 322 304 301 291 283 280 280 281 279
307 305 304 311 313 317 329 328 340 346 350 353 358 2 7 9 8 14 18 16 6 353 353 357 359 353 354 352 355 349 337 330 323 321 306 298 301 288 281 276 284 286 288
300 303 307 309 308 310 320 324 335 346 350 351 353 359 1 2 0 4 8 14 14 4 355 352 353 357 360 0 355 349 337 326 317 310 302 299 294 293 295 288 282 291 287
288 291 297 301 307 305 311 318 329 341 349 350 352 353 359 0 351 349 353 7 10 11 4 354 352 354 351 355 357 354 347 350 338 330 320 305 303 301 303 302 302 301 305
284 287 291 297 303 298 304 307 323 338 346 348 347 349 354 360 357 344 339 350 1 6 9 2 352 348 353 349 355 352 350 347 350 349 336 327 321 317 318 313 307 307 307
279 282 289 299 299 297 296 300 315 331 342 343 343 348 349 350 360 353 341 344 346 357 2 359 353 349 345 347 346 350 351 344 339 337 342 331 321 317 317 306 304 302 303
275 277 284 292 299 302 302 290 304 321 334 337 338 341 343 345 350 357 348 340 341 347 356 353 349 348 346 345 340 340 343 340 335 329 326 330 321 315 312 303 301 302 298
279 280 280 287 296 296 304 291 305 318 323 328 334 333 333 339 343 349 348 344 334 335 348 345 345 345 341 338 338 336 336 334 330 324 316 311 322 304 302 303 301 305 301
281 282 280 281 289 299 297 296 304 307 315 320 329 329 323 330 340 343 342 343 334 329 331 340 343 342 336 341 332 331 327 330 329 323 315 308 304 306 302 294 300 299 303
272 278 283 282 284 294 292 299 305 305 310 315 319 325 314 323 328 336 340 338 332 329 325 329 332 337 336 334 339 328 322 318 321 319 320 316 305 299 299 299 293 289 293
267 272 278 281 281 288 290 295 299 294 302 311 311 316 308 311 321 329 332 333 329 327 321 320 324 327 328 327 323 321 318 312 312 311 312 310 307 303 299 300 300 295 298
260 273 277 279 280 283 283 286 290 290 302 306 304 318 302 300 315 324 325 332 331 329 320 317 317 317 322 318 318 317 311 310 305 303 301 301 301 298 298 297 299 298 300
260 263 276 281 283 285 277 277 286 293 299 301 306 308 306 304 308 317 321 324 331 334 321 318 314 312 315 316 315 311 309 305 305 306 302 299 298 298 298 300 294 292 295
266 262 271 277 281 281 275 282 284 290 292 297 300 301 300 297 302 310 312 316 323 332 335 319 314 313 307 312 309 305 305 305 303 305 303 305 301 295 299 301 301 298 297
268 264 271 276 280 278 275 281 281 282 288 293 297 297 294 292 300 306 309 310 314 320 329 330 326 319 308 308 309 309 301 297 299 307 303 301 300 300 299 299 298 299 300
268 267 267 275 279 280 274 277 279 283 286 289 291 294 290 289 299 302 305 306 306 310 317 327 324 324 310 307 308 306 303 301 300 304 303 303 301 301 301 300 300 299 298
268 267 270 275 278 279 274 272 276 281 285 286 286 291 290 292 296 296 302 302 303 304 313 323 325 324 320 308 307 308 302 301 302 304 302 302 304 304 301 301 301 300 299
269 268 269 271 274 276 274 272 272 274 280 285 285 286 289 291 293 291 297 297 296 298 305 316 321 322 312 301 298 302 305 302 299 301 304 303 299 302 302 301 299 298 295
266 269 269 268 270 272 273 273 275 277 278 281 286 286 287 288 286 288 293 292 294 298 303 311 316 321 314 298 299 299 301 299 298 297 303 299 301 302 303 301 300 296 295
262 269 269 271 273 273 273 275 277 280 280 283 282 283 286 286 283 287 288 290 290 296 302 309 313 315 307 302 303 304 304 300 302 299 298 294 295 299 302 298 298 301 303
265 271 273 273 274 276 278 278 280 280 280 279 279 282 284 285 287 285 287 287 289 297 300 306 307 305 307 303 302 301 302 301 298 299 295 297 294 296 296 300 304 308 307
Height
10904 10904 10903 10900 10897 10895 10892 10889 10885 10881 10876 10871 10865 10857 10849 10842 10838 10835 10834 10833 10831 10830 10829 10827 10825 10822 10820 10817 10814 10812 10810 10807 10805 10803 10804 10804 10804 10805 10806 10806 10807 10807 10807
10903 10902 10900 10898 10895 10893 10891 10888 10884 10880 10876 10871 10865 10857 10850 10844 10840 10836 10834 10832 10829 10828 10826 10823 10821 10818 10814 10811 10809 10807 10805 10803 10801 10801 10800 10801 10801 10802 10803 10802 10803 10803 10803
10900 10899 10898 10896 10894 10892 10890 10887 10884 10880 10875 10870 10864 10858 10851 10845 10841 10837 10834 10831 10828 10826 10822 10818 10815 10812 10809 10806 10804 10803 10802 10800 10798 10797 10798 10797 10797 10798 10798 10799 10801 10800 10800
10897 10896 10896 10894 10893 10891 10888 10886 10883 10878 10874 10869 10864 10859 10853 10848 10843 10838 10834 10831 10828 10824 10819 10815 10812 10809 10806 10802 10800 10799 10798 10797 10796 10795 10795 10795 10795 10795 10796 10797 10796 10795 10795
10893 10893 10893 10892 10891 10889 10887 10885 10881 10877 10872 10868 10864 10859 10855 10850 10845 10839 10834 10830 10827 10823 10819 10814 10810 10807 10803 10801 10798 10797 10796 10794 10794 10794 10793 10792 10792 10793 10793 10792 10792 10791 10790
10890 10890 10890 10889 10887 10887 10885 10883 10880 10876 10871 10868 10864 10859 10855 10850 10845 10840 10835 10831 10827 10823 10819 10814 10809 10807 10803 10799 10796 10794 10793 10792 10791 10790 10790 10790 10790 10790 10789 10789 10787 10787 10786
10888 10887 10887 10886 10885 10884 10882 10880 10877 10874 10870 10866 10863 10858 10854 10849 10845 10841 10835 10831 10826 10822 10819 10815 10811 10807 10803 10798 10796 10793 10792 10791 10789 10789 10789 10788 10787 10786 10785 10784 10783 10783 10782
10883 10883 10884 10883 10881 10880 10879 10877 10874 10871 10868 10864 10861 10857 10853 10848 10844 10839 10836 10831 10826 10822 10818 10815 10811 10807 10803 10799 10796 10794 10792 10789 10788 10787 10785 10784 10783 10782 10781 10779 10777 10776 10776
10881 10880 10880 10880 10878 10876 10875 10874 10872 10868 10866 10863 10858 10854 10851 10847 10842 10838 10834 10830 10826 10822 10817 10814 10811 10807 10804 10800 10797 10794 10791 10788 10785 10783 10781 10779 10778 10777 10776 10775 10773 10771 10768
10877 10879 10876 10875 10874 10872 10870 10869 10869 10866 10862 10860 10856 10851 10847 10844 10841 10837 10832 10828 10824 10820 10816 10812 10810 10807 10803 10799 10796 10793 10790 10786 10783 10781 10779 10776 10774 10772 10771 10770 10769 10767 10766
10870 10873 10871 10870 10870 10867 10866 10865 10865 10862 10859 10857 10854 10849 10845 10840 10837 10833 10828 10825 10821 10817 10813 10810 10807 10805 10802 10798 10794 10791 10788 10784 10781 10778 10776 10773 10771 10770 10768 10766 10765 10764 10763
10866 10866 10866 10866 10864 10862 10862 10860 10860 10858 10855 10853 10850 10846 10842 10837 10832 10830 10826 10821 10817 10814 10811 10807 10804 10801 10798 10795 10792 10788 10785 10782 10780 10776 10772 10770 10767 10766 10764 10762 10760 10759 10757
10862 10859 10860 10861 10860 10858 10859 10856 10854 10852 10851 10849 10846 10842 10838 10834 10829 10825 10822 10818 10813 10809 10807 10804 10800 10797 10793 10790 10788 10785 10782 10779 10776 10773 10770 10768 10766 10763 10759 10756 10755 10754 10752
10853 10851 10854 10855 10856 10853 10852 10852 10851 10847 10846 10843 10841 10838 10834 10831 10827 10821 10816 10813 10809 10805 10802 10798 10795 10792 10788 10785 10782 10782 10778 10775 10771 10768 10765 10762 10760 10758 10755 10752 10750 10748 10745
10852 10844 10844 10848 10849 10848 10845 10843 10843 10841 10839 10838 10835 10833 10829 10826 10822 10818 10814 10808 10803 10801 10797 10795 10790 10787 10784 10780 10777 10773 10770 10768 10766 10763 10760 10757 10754 10751 10749 10747 10743 10741 10739
10850 10842 10836 10841 10843 10842 10839 10837 10834 10835 10833 10832 10829 10826 10824 10820 10817 10813 10810 10805 10800 10794 10791 10786 10785 10781 10778 10774 10771 10767 10765 10762 10759 10756 10753 10749 10746 10743 10740 10737 10735 10733 10731
10841 10837 10830 10830 10835 10836 10833 10832 10828 10828 10826 10823 10822 10821 10818 10815 10812 10808 10804 10800 10796 10792 10786 10781 10776 10772 10770 10767 10765 10762 10758 10756 10753 10749 10746 10742 10739 10736 10733 10730 10727 10724 10721
10831 10831 10825 10821 10823 10827 10822 10824 10821 10822 10820 10817 10815 10812 10810 10808 10805 10802 10799 10794 10791 10788 10783 10778 10774 10769 10765 10762 10759 10756 10752 10748 10744 10741 10736 10734 10730 10726 10722 10719 10716 10713 10711
10817 10821 10819 10814 10814 10818 10815 10813 10812 10812 10812 10810 10808 10806 10803 10800 10797 10794 10791 10789 10785 10781 10778 10773 10769 10764 10759 10755 10752 10749 10745 10740 10736 10732 10728 10725 10721 10716 10713 10709 10704 10700 10697
10797 10812 10811 10806 10805 10808 10808 10804 10801 10801 10801 10799 10797 10796 10794 10792 10789 10786 10784 10780 10776 10773 10769 10765 10760 10756 10751 10748 10743 10740 10736 10730 10726 10722 10719 10715 10710 10705 10701 10696 10691 10688 10683
10780 10797 10801 10799 10796 10795 10799 10796 10793 10791 10792 10789 10786 10785 10784 10782 10780 10776 10773 10770 10767 10764 10760 10755 10750 10745 10741 10740 10735 10731 10724 10720 10715 10712 10708 10703 10698 10694 10690 10684 10677 10671 10666
10764 10784 10789 10788 10783 10781 10787 10787 10785 10784 10781 10779 10777 10775 10774 10772 10769 10766 10762 10758 10756 10752 10749 10744 10739 10734 10729 10726 10725 10721 10716 10708 10704 10699 10693 10687 10681 10678 10673 10666 10659 10653 10646
10753 10762 10778 10777 10770 10767 10771 10774 10775 10775 10773 10769 10767 10764 10763 10761 10758 10754 10751 10747 10744 10742 10738 10733 10728 10722 10716 10711 10710 10707 10705 10702 10696 10686 10680 10676 10671 10667 10661 10655 10648 10641 10633
10744 10744 10757 10757 10757 10755 10756 10762 10765 10764 10763 10759 10757 10753 10752 10750 10746 10742 10739 10735 10731 10727 10724 10720 10716 10711 10705 10699 10695 10690 10688 10687 10684 10684 10674 10662 10653 10649 10642 10634 10627 10620 10612
10732 10732 10737 10739 10742 10740 10743 10748 10753 10753 10751 10748 10746 10742 10740 10737 10735 10730 10726 10723 10719 10715 10711 10705 10701 10695 10691 10685 10681 10674 10667 10664 10660 10663 10666 10654 10646 10636 10627 10617 10608 10598 10592
10720 10725 10717 10721 10724 10723 10729 10733 10737 10738 10737 10735 10732 10732 10729 10724 10721 10718 10714 10711 10707 10703 10698 10693 10686 10681 10675 10670 10664 10660 10656 10650 10643 10637 10638 10635 10629 10620 10609 10597 10584 10575 10565